• în România
  • Lista ţărilor
  • Pe 7 zile
  • Temperatura apei
  • Hartă satelitară
  • Meteo pe hartă
  • Widget-uri
  • user-avatar
    Intrare

    Meteo pe oră la Prutz

    Astăzi, 24 Octombrie, Miercuri

    Timp Temperatura Precipitaţii Vânt Presiune Umiditate
    00:00 +5°C° 0.1 mm 2 m/s 636 mmHg 56%
    01:00 +5°C° 0.1 mm 2 m/s 636 mmHg 57%
    02:00 +4°C° 0.1 mm 3 m/s 636 mmHg 59%
    03:00 +4°C° 0.1 mm 3 m/s 636 mmHg 60%
    04:00 +4°C° 0.1 mm 3 m/s 635 mmHg 62%
    05:00 +4°C° 0.3 mm 3 m/s 635 mmHg 67%
    06:00 +3°C° 0.3 mm 3 m/s 635 mmHg 71%
    07:00 +3°C° 0.3 mm 3 m/s 635 mmHg 76%
    08:00 +4°C° 0.7 mm 3 m/s 635 mmHg 79%
    09:00 +4°C° 0.7 mm 3 m/s 635 mmHg 82%
    10:00 +5°C° 0.7 mm 3 m/s 635 mmHg 85%
    11:00 +5°C° 0.9 mm 3 m/s 635 mmHg 86%
    12:00 +7°C° 0.9 mm 3 m/s 635 mmHg 86%
    13:00 +7°C° 0.9 mm 3 m/s 636 mmHg 87%
    14:00 +7°C° 0.7 mm 3 m/s 635 mmHg 88%
    15:00 +7°C° 0.7 mm 3 m/s 635 mmHg 90%
    16:00 +7°C° 0.7 mm 3 m/s 635 mmHg 91%
    17:00 +5°C° 0.4 mm 3 m/s 635 mmHg 92%
    18:00 +5°C° 0.4 mm 3 m/s 636 mmHg 94%
    19:00 +5°C° 0.4 mm 3 m/s 636 mmHg 95%
    20:00 +6°C° 0.3 mm 2 m/s 636 mmHg 96%
    21:00 +6°C° 0.3 mm 2 m/s 636 mmHg 96%
    22:00 +6°C° 0.3 mm 2 m/s 636 mmHg 96%
    23:00 +6°C° 0.1 mm 2 m/s 636 mmHg 96%

    Mâine, 25 Octombrie, Joi

    Timp Temperatura Precipitaţii Vânt Presiune Umiditate
    00:00 +6°C° 0.1 mm 2 m/s 636 mmHg 96%
    01:00 +5°C° 0.1 mm 2 m/s 636 mmHg 97%
    02:00 +6°C° 0 mm 1 m/s 636 mmHg 96%
    03:00 +6°C° 0 mm 1 m/s 636 mmHg 96%
    04:00 +5°C° 0 mm 1 m/s 635 mmHg 96%
    05:00 +5°C° 0 mm 1 m/s 635 mmHg 94%
    06:00 +4°C° 0 mm 1 m/s 635 mmHg 93%
    07:00 +3°C° 0 mm 2 m/s 635 mmHg 92%
    08:00 +6°C° 0 mm 1 m/s 635 mmHg 81%
    09:00 +9°C° 0 mm 1 m/s 636 mmHg 71%
    10:00 +11°C° 0 mm 1 m/s 636 mmHg 61%
    11:00 +12°C° 0 mm 1 m/s 636 mmHg 56%
    12:00 +13°C° 0 mm 1 m/s 636 mmHg 50%
    13:00 +14°C° 0 mm 2 m/s 636 mmHg 45%
    14:00 +14°C° 0 mm 2 m/s 636 mmHg 50%
    15:00 +13°C° 0 mm 1 m/s 635 mmHg 56%
    16:00 +12°C° 0 mm 1 m/s 635 mmHg 61%
    17:00 +10°C° 0 mm 1 m/s 634 mmHg 69%
    18:00 +8°C° 0 mm 1 m/s 633 mmHg 76%
    19:00 +6°C° 0 mm 1 m/s 633 mmHg 83%
    20:00 +5°C° 0 mm 1 m/s 633 mmHg 81%
    21:00 +5°C° 0 mm 1 m/s 632 mmHg 79%
    22:00 +5°C° 0 mm 1 m/s 632 mmHg 78%
    23:00 +5°C° 0 mm 1 m/s 632 mmHg 75%

    Poimâine, 26 Octombrie, Vineri

    Timp Temperatura Precipitaţii Vânt Presiune Umiditate
    00:00 +5°C° 0 mm 1 m/s 632 mmHg 72%
    01:00 +4°C° 0 mm 1 m/s 631 mmHg 69%
    02:00 +4°C° 0 mm 1 m/s 631 mmHg 67%
    03:00 +4°C° 0 mm 1 m/s 631 mmHg 65%
    04:00 +4°C° 0 mm 1 m/s 630 mmHg 63%
    05:00 +4°C° 0 mm 1 m/s 630 mmHg 61%
    06:00 +4°C° 0 mm 1 m/s 630 mmHg 60%
    07:00 +4°C° 0 mm 1 m/s 630 mmHg 58%
    08:00 +7°C° 0 mm 1 m/s 630 mmHg 53%
    09:00 +9°C° 0 mm 1 m/s 631 mmHg 48%
    10:00 +12°C° 0 mm 1 m/s 632 mmHg 43%
    11:00 +12°C° 0 mm 1 m/s 632 mmHg 42%
    12:00 +13°C° 0 mm 1 m/s 631 mmHg 41%
    13:00 +14°C° 0 mm 2 m/s 631 mmHg 39%
    14:00 +13°C° 0 mm 1 m/s 631 mmHg 45%
    15:00 +12°C° 0 mm 1 m/s 630 mmHg 51%
    16:00 +11°C° 0 mm 1 m/s 630 mmHg 57%
    17:00 +9°C° 0 mm 1 m/s 629 mmHg 66%
    18:00 +7°C° 0 mm 1 m/s 628 mmHg 75%
    19:00 +5°C° 0 mm 1 m/s 628 mmHg 83%
    20:00 +5°C° 0 mm 1 m/s 628 mmHg 85%
    21:00 +4°C° 0 mm 1 m/s 628 mmHg 87%
    22:00 +4°C° 0 mm 1 m/s 628 mmHg 89%
    23:00 +4°C° 0.1 mm 1 m/s 628 mmHg 91%

    27 Octombrie, Sâmbătă

    Timp Temperatura Precipitaţii Vânt Presiune Umiditate
    00:00 +4°C° 0.1 mm 1 m/s 628 mmHg 93%
    01:00 +4°C° 0.1 mm 1 m/s 628 mmHg 95%
    02:00 +4°C° 0.4 mm 1 m/s 628 mmHg 94%
    03:00 +4°C° 0.4 mm 1 m/s 627 mmHg 94%
    04:00 +4°C° 0.4 mm 1 m/s 627 mmHg 94%
    05:00 +4°C° 1 mm 1 m/s 627 mmHg 94%
    06:00 +4°C° 1 mm 1 m/s 626 mmHg 94%
    07:00 +4°C° 1 mm 1 m/s 626 mmHg 94%
    08:00 +4°C° 1.7 mm 1 m/s 626 mmHg 94%
    09:00 +2°C° 1.7 mm 2 m/s 626 mmHg 94%
    10:00 +2°C° 1.7 mm 2 m/s 626 mmHg 94%
    11:00 +2°C° 1.8 mm 2 m/s 625 mmHg 94%
    12:00 +2°C° 1.8 mm 2 m/s 625 mmHg 95%
    13:00 +2°C° 1.8 mm 2 m/s 625 mmHg 95%
    14:00 +1°C° 1.7 mm 2 m/s 624 mmHg 95%
    15:00 +1°C° 1.7 mm 2 m/s 624 mmHg 96%
    16:00 -1°C° 1.7 mm 2 m/s 624 mmHg 96%
    17:00 -1°C° 1.4 mm 2 m/s 624 mmHg 96%
    18:00 -1°C° 1.4 mm 2 m/s 624 mmHg 96%
    19:00 -2°C° 1.4 mm 2 m/s 624 mmHg 96%
    20:00 0°C° 1 mm 1 m/s 624 mmHg 96%
    21:00 0°C° 1 mm 1 m/s 623 mmHg 96%
    22:00 0°C° 1 mm 1 m/s 623 mmHg 96%
    23:00 0°C° 1 mm 1 m/s 623 mmHg 96%

    28 Octombrie, Duminică

    Timp Temperatura Precipitaţii Vânt Presiune Umiditate
    00:00 0°C° 1 mm 1 m/s 622 mmHg 96%
    01:00 0°C° 1 mm 1 m/s 622 mmHg 96%
    02:00 0°C° 1.3 mm 1 m/s 622 mmHg 96%
    03:00 0°C° 1.3 mm 1 m/s 621 mmHg 96%
    04:00 0°C° 1.3 mm 1 m/s 621 mmHg 96%
    05:00 0°C° 1.6 mm 1 m/s 620 mmHg 96%
    06:00 0°C° 1.6 mm 1 m/s 620 mmHg 96%
    07:00 0°C° 1.6 mm 1 m/s 620 mmHg 96%
    08:00 +1°C° 1.9 mm 1 m/s 620 mmHg 96%
    09:00 +1°C° 1.9 mm 1 m/s 620 mmHg 96%
    10:00 +1°C° 1.9 mm 1 m/s 620 mmHg 96%
    11:00 +1°C° 1.6 mm 2 m/s 620 mmHg 96%
    12:00 +1°C° 1.6 mm 2 m/s 620 mmHg 96%
    13:00 +2°C° 1.6 mm 2 m/s 620 mmHg 96%
    14:00 +2°C° 1 mm 2 m/s 620 mmHg 96%
    15:00 +2°C° 1 mm 2 m/s 619 mmHg 97%
    16:00 +3°C° 1 mm 2 m/s 619 mmHg 97%
    17:00 +3°C° 1.2 mm 2 m/s 619 mmHg 97%
    18:00 +2°C° 1.2 mm 2 m/s 619 mmHg 97%
    19:00 +2°C° 1.2 mm 2 m/s 619 mmHg 97%
    20:00 +3°C° 2.3 mm 1 m/s 619 mmHg 97%
    21:00 +3°C° 2.3 mm 1 m/s 619 mmHg 97%
    22:00 +3°C° 2.3 mm 1 m/s 619 mmHg 98%
    23:00 +3°C° 2.2 mm 1 m/s 619 mmHg 97%

    29 Octombrie, Luni

    Timp Temperatura Precipitaţii Vânt Presiune Umiditate
    00:00 +3°C° 2.2 mm 1 m/s 619 mmHg 97%
    01:00 +3°C° 2.2 mm 1 m/s 619 mmHg 97%
    02:00 +3°C° 0.7 mm 1 m/s 619 mmHg 97%
    03:00 +3°C° 0.7 mm 1 m/s 619 mmHg 96%
    04:00 +3°C° 0.7 mm 1 m/s 619 mmHg 96%
    05:00 +2°C° 0.4 mm 1 m/s 619 mmHg 96%
    06:00 +2°C° 0.4 mm 1 m/s 619 mmHg 97%
    07:00 +2°C° 0.4 mm 1 m/s 619 mmHg 97%
    08:00 +3°C° 0.7 mm 1 m/s 619 mmHg 97%
    09:00 +3°C° 0.7 mm 1 m/s 619 mmHg 98%
    10:00 +3°C° 0.7 mm 2 m/s 619 mmHg 98%
    11:00 +3°C° 0.8 mm 2 m/s 619 mmHg 98%
    12:00 +3°C° 0.8 mm 2 m/s 618 mmHg 98%
    13:00 +3°C° 0.8 mm 2 m/s 618 mmHg 98%
    14:00 +3°C° 0.7 mm 2 m/s 618 mmHg 98%
    15:00 +2°C° 0.7 mm 2 m/s 618 mmHg 97%
    16:00 +2°C° 0.7 mm 2 m/s 619 mmHg 96%
    17:00 +1°C° 0.7 mm 2 m/s 619 mmHg 96%
    18:00 +1°C° 0.7 mm 2 m/s 619 mmHg 96%
    19:00 -1°C° 0.7 mm 2 m/s 619 mmHg 96%
    20:00 -1°C° 0.4 mm 2 m/s 619 mmHg 96%
    21:00 -1°C° 0.4 mm 2 m/s 619 mmHg 96%
    22:00 0°C° 0.4 mm 1 m/s 619 mmHg 96%
    23:00 0°C° 0.2 mm 1 m/s 619 mmHg 96%

    30 Octombrie, Marţi

    Timp Temperatura Precipitaţii Vânt Presiune Umiditate
    00:00 0°C° 0.2 mm 1 m/s 619 mmHg 96%
    01:00 -3°C° 0.2 mm 2 m/s 619 mmHg 96%
    02:00 -1°C° 0.3 mm 1 m/s 619 mmHg 96%
    03:00 -1°C° 0.3 mm 1 m/s 619 mmHg 96%
    04:00 -1°C° 0.3 mm 1 m/s 619 mmHg 96%
    05:00 -1°C° 0.3 mm 1 m/s 620 mmHg 96%
    06:00 -1°C° 0.3 mm 1 m/s 620 mmHg 96%
    07:00 -2°C° 0.3 mm 1 m/s 620 mmHg 96%
    08:00 -1°C° 0.2 mm 1 m/s 621 mmHg 94%
    09:00 0°C° 0.2 mm 1 m/s 621 mmHg 93%
    10:00 +1°C° 0.2 mm 1 m/s 622 mmHg 92%
    11:00 +2°C° 0.1 mm 1 m/s 622 mmHg 92%
    12:00 +2°C° 0.1 mm 1 m/s 622 mmHg 92%
    13:00 +2°C° 0.1 mm 1 m/s 622 mmHg 93%
    14:00 +2°C° 0.1 mm 1 m/s 622 mmHg 93%
    15:00 +2°C° 0.1 mm 1 m/s 623 mmHg 93%
    16:00 +2°C° 0.1 mm 1 m/s 623 mmHg 93%
    17:00 +1°C° 0.1 mm 1 m/s 623 mmHg 94%
    18:00 0°C° 0.1 mm 1 m/s 623 mmHg 94%
    19:00 -3°C° 0.1 mm 2 m/s 624 mmHg 95%
    20:00 -4°C° 0 mm 2 m/s 624 mmHg 94%
    21:00 -4°C° 0 mm 2 m/s 624 mmHg 93%
    22:00 -5°C° 0 mm 2 m/s 624 mmHg 93%
    23:00 -5°C° 0 mm 2 m/s 624 mmHg 92%
    Arată mai mult